Location: Newark
(57.9389°N, 16.3988°E)
Time: 23:31:47
(UTC+00:00)

Envisat - Visible Passes

Search period start: 21 January 2021 00:00
Search period end: 31 January 2021 00:00
Orbit: 764 x 766 km, 98.1° (Epoch: 21 January)

Date Brightness Start Highest point End Pass type
(mag) Time Alt. Az. Time Alt. Az. Time Alt. Az.
21 Jan 5.3 03:42:09 10° NE 03:46:12 23° E 03:50:15 10° SE visible
21 Jan 2.9 05:20:42 10° NNE 05:25:49 78° WNW 05:30:54 10° SSW visible
21 Jan 5.3 16:45:12 10° SSW 16:49:29 27° W 16:53:48 10° NNW visible
22 Jan 6.1 03:06:28 10° NE 03:08:49 13° E 03:11:11 10° ESE visible
22 Jan 3.5 04:43:53 10° NNE 04:48:57 61° ESE 04:53:59 10° S visible
22 Jan 3.7 06:23:16 10° N 06:27:45 32° WNW 06:32:13 10° WSW visible
22 Jan 4.2 16:07:27 10° S 16:12:21 47° W 16:17:17 10° NNW visible
23 Jan 4.7 04:07:14 10° NNE 04:11:54 34° E 04:16:31 10° SSE visible
23 Jan 3.1 05:46:13 10° N 05:51:10 53° WNW 05:56:06 10° SW visible
23 Jan 5.9 17:11:46 10° SW 17:15:14 18° W 17:18:43 10° NW visible
24 Jan 5.6 03:30:57 10° NE 03:34:39 20° E 03:38:19 10° SE visible
24 Jan 3.0 05:09:17 10° NNE 05:14:25 90° ESE 05:19:31 10° SSW visible
24 Jan 5.0 16:33:26 10° SSW 16:37:58 32° W 16:42:31 10° NNW visible
25 Jan 6.2 02:55:58 10° ENE 02:57:13 11° ENE 02:58:26 10° E visible
25 Jan 3.9 04:32:30 10° NNE 04:37:29 51° E 04:42:26 10° S visible
25 Jan 3.5 06:11:46 10° N 06:16:26 37° WNW 06:21:04 10° SW visible
25 Jan 3.9 15:55:53 10° S 16:00:53 56° W 16:05:55 10° NNW visible
25 Jan 6.2 17:39:11 10° WSW 17:41:04 12° W 17:42:58 10° WNW visible
26 Jan 5.0 03:55:56 10° NNE 04:00:22 29° E 04:04:47 10° SSE visible
26 Jan 3.0 05:34:45 10° NNE 05:39:47 62° WNW 05:44:48 10° SSW visible
26 Jan 5.7 16:59:48 10° SW 17:03:40 21° W 17:07:33 10° NW visible
27 Jan 5.8 03:19:50 10° NE 03:23:04 17° E 03:26:17 10° ESE visible
27 Jan 3.2 04:57:51 10° NNE 05:02:59 77° ESE 05:08:04 10° SSW visible
27 Jan 4.7 16:21:44 10° SSW 16:26:27 37° W 16:31:11 10° NNW visible
28 Jan 4.2 04:21:08 10° NNE 04:26:00 43° E 04:30:50 10° S visible
28 Jan 3.3 06:00:17 10° N 06:05:05 43° WNW 06:09:52 10° SW visible
28 Jan 3.5 15:44:22 10° S 15:49:25 67° WSW 15:54:31 10° NNW visible
28 Jan 6.1 17:26:44 10° WSW 17:29:28 14° W 17:32:12 10° NW visible
29 Jan 5.2 03:44:40 10° NE 03:48:51 25° E 03:52:59 10° SE visible
29 Jan 2.9 05:23:17 10° NNE 05:28:24 73° WNW 05:33:28 10° SSW visible
29 Jan 5.5 16:47:56 10° SW 16:52:07 25° W 16:56:19 10° NW visible
30 Jan 6.0 03:08:51 10° NE 03:11:28 14° E 03:14:06 10° ESE visible
30 Jan 3.4 04:46:27 10° NNE 04:51:32 65° ESE 04:56:35 10° S visible
30 Jan 4.4 16:10:06 10° S 16:14:57 44° W 16:19:51 10° NNW visible
